Dewpoint
12 11 11 11 10 14 17 16 16 9 5 3 1 -0 -2 2 -3 -6 -4 -4 -6 -3 -1 1 1 -1 1 -0 7 17 18 21 18 20 23 18 38 45 55 56 58 58 59 60 60 62 62 63 62 62 62 63 65 66 65 65 66 65 64 65 65 65 65 64 64 64 64 63 63 63 62 62 62 60 64 63 62 64 64 63 61 63 63 65 65 65
11 12 13 14 14 15 16 19 23 18 14 4 5 8 6 2 1 -3 -4 -4 -4 15 0 5 1 -0 2 3 1 15 20 20 21 22 26 23 22 47 53 51 52 53 57 59 61 62 62 61 63 63 62 63 64 65 65 65 65 65 65 65 65 65 65 65 65 64 65 65 63 63 60 61 60 59 62 62 62 62 63 64 65 67 63 64 65 66
12 12 14 14 17 19 20 21 18 18 18 15 13 12 11 1 -0 0 -5 -7 -3 6 7 1 -1 -2 3 3 1 6 17 23 25 25 25 27 25 46 50 55 56 57 54 57 59 61 61 62 60 61 63 63 65 65 65 65 65 64 65 65 65 65 65 65 66 65 66 67 67 69 65 60 58 59 61 56 57 61 59 67 65 67 66 64 62 64
15 12 16 12 17 20 19 19 21 20 20 16 14 14 13 5 2 -0 7 1 3 9 10 9 3 6 7 7 8 6 3 22 22 22 23 27 27 41 53 53 53 55 56 56 57 60 61 62 61 61 63 64 65 65 64 65 64 64 65 65 65 65 65 65 66 66 66 67 66 66 65 64 64 60 61 62 63 61 60 61 63 66 67 66 62 60
11 14 15 15 14 16 20 20 19 17 14 19 21 15 12 6 4 -1 9 7 19 13 21 11 15 11 9 3 2 9 8 13 20 22 24 25 23 52 55 55 55 55 56 57 59 61 61 61 60 61 63 65 65 64 62 62 64 63 65 66 65 65 65 65 65 65 65 66 66 65 62 60 60 62 61 61 59 60 61 60 63 64 65 63 61 62
14 17 20 11 10 13 14 20 22 24 17 17 21 20 16 10 6 1 18 12 11 14 18 11 11 12 11 7 4 6 12 9 19 25 24 25 29 53 53 53 54 56 56 57 58 59 60 61 62 63 63 64 64 64 62 63 63 63 65 65 65 65 65 65 64 64 64 64 62 62 61 60 60 61 61 61 58 58 58 57 61 60 62 61 65 64
14 17 16 13 15 10 14 18 21 21 18 14 12 13 13 10 10 7 6 9 13 12 16 20 14 13 11 11 10 12 10 9 24 29 26 25 29 48 52 56 54 54 58 58 58 59 60 62 62 62 62 62 62 62 62 63 63 64 64 65 64 64 64 64 64 63 64 62 61 61 62 63 62 61 62 61 63 62 56 60 64 62 64 59 63 64
13 12 12 10 18 15 16 15 19 17 13 9 14 8 6 5 6 12 11 11 19 17 21 18 14 12 10 13 16 16 14 11 19 23 26 25 30 52 54 56 56 53 55 58 57 59 61 61 60 60 60 60 61 61 62 62 62 62 63 64 63 63 63 63 63 63 63 62 61 61 63 61 61 63 61 63 62 62 61 61 60 62 66 60 59 64
23 17 16 17 18 15 14 11 12 13 11 9 12 9 8 4 7 8 8 10 15 17 14 18 14 13 10 13 11 13 12 15 15 22 27 29 32 52 52 52 53 51 54 55 56 58 59 59 60 61 61 60 61 61 61 62 62 62 62 63 63 62 62 63 63 64 64 63 62 61 60 63 60 60 61 59 58 60 61 61 61 63 59 61 62 59
11 11 15 14 13 14 14 10 7 10 14 14 10 8 7 4 4 8 12 10 16 20 16 16 22 13 11 14 8 13 11 18 20 25 31 32 34 51 51 50 49 47 52 54 57 58 58 59 59 60 60 60 61 61 61 62 62 61 61 61 61 62 63 63 64 64 63 62 62 61 60 61 60 60 59 59 59 60 62 62 63 61 61 59 63 65
12 17 16 14 13 10 9 8 8 7 10 12 9 7 9 4 5 8 11 14 16 17 16 16 21 16 14 16 10 15 24 24 25 28 31 35 48 49 53 50 47 47 51 53 56 56 58 59 59 58 59 60 60 61 61 61 61 61 61 61 61 62 63 63 63 63 61 61 61 61 59 60 60 61 61 58 58 59 61 60 61 61 61 61 60 62
11 11 10 10 14 10 7 8 10 10 10 9 8 7 13 12 7 10 14 11 14 12 12 12 17 23 17 21 13 20 24 24 26 25 32 34 44 49 51 50 49 48 49 53 57 56 58 59 58 58 58 59 60 60 60 61 61 61 61 61 61 62 63 63 62 62 61 61 61 61 60 61 62 62 59 59 58 58 58 60 61 63 62 59 61 62
11 8 11 12 17 9 7 8 11 5 7 7 9 13 17 13 9 5 3 10 9 12 14 12 13 16 18 27 28 29 30 29 24 25 32 35 46 47 48 49 54 52 52 55 57 57 57 58 58 57 58 59 59 60 60 61 61 60 60 59 60 61 63 62 62 62 61 60 61 61 61 63 61 61 60 60 60 60 60 60 60 59 60 59 59 61
10 7 8 11 12 12 9 9 13 11 12 11 9 14 14 11 8 12 7 12 12 14 13 16 19 18 32 29 32 31 32 35 34 39 37 37 47 47 47 49 53 53 52 54 55 55 55 58 59 58 58 58 59 59 60 61 61 61 59 59 59 60 62 62 62 61 61 61 61 61 62 61 61 61 61 61 60 61 60 61 61 61 59 60 60 59
10 7 7 10 12 10 10 11 12 15 9 9 9 7 17 15 12 14 9 12 12 10 18 12 19 19 22 27 31 33 33 35 36 39 41 39 41 45 45 49 54 54 51 53 55 55 56 58 59 60 60 57 58 59 61 61 61 61 60 60 61 61 62 62 61 60 60 60 61 61 61 60 62 60 60 59 60 61 61 62 61 62 60 60 59 59
8 10 10 9 9 8 8 11 11 10 10 6 6 8 17 24 17 12 21 15 16 14 13 15 20 21 26 33 31 31 32 34 35 37 39 40 38 41 42 45 51 51 52 52 56 56 57 59 59 60 61 61 60 60 61 61 61 61 60 60 61 62 62 61 60 61 60 61 62 63 60 60 61 59 60 59 60 62 64 63 63 61 62 59 58 58
11 12 11 9 9 7 9 9 8 10 15 14 6 9 12 16 16 22 24 23 22 16 12 24 24 26 30 31 29 29 29 31 34 33 34 43 44 47 42 43 43 47 49 57 58 57 58 58 58 59 60 62 61 61 60 61 60 60 60 61 61 61 61 61 62 61 61 62 62 62 62 62 62 59 59 58 60 61 63 64 62 62 59 58 58 58
16 22 15 10 7 8 10 9 8 9 11 12 11 7 9 12 20 25 18 21 16 12 15 23 24 25 19 24 27 29 31 31 31 31 43 44 45 47 46 45 46 46 53 57 58 58 58 58 58 59 60 62 60 60 60 59 61 61 61 60 61 61 61 61 61 62 62 62 63 62 62 62 62 64 59 58 58 59 60 60 60 59 58 57 58 58
16 16 17 18 13 9 9 9 8 8 10 10 14 18 15 20 13 18 19 16 15 15 12 11 13 29 19 23 24 29 30 35 35 45 44 44 45 47 48 48 50 55 56 57 57 58 58 58 58 57 58 60 60 60 59 60 61 62 61 61 61 60 61 61 61 62 62 62 62 62 61 62 61 63 59 58 57 58 58 57 58 59 59 57 57 57
26 18 18 16 12 9 8 9 15 11 8 7 11 15 14 17 23 17 19 16 18 20 16 15 7 26 33 34 28 26 33 39 39 43 44 44 45 48 51 53 54 55 56 56 56 56 59 59 58 58 58 59 60 59 60 60 61 60 61 60 59 59 59 60 61 62 61 61 62 61 61 61 61 62 58 59 58 58 57 55 56 57 57 58 56 56
23 31 17 34 13 11 10 12 11 11 13 10 11 13 14 26 37 19 30 14 12 15 14 12 10 31 36 38 37 39 42 44 42 44 46 46 46 48 51 53 54 54 54 52 53 56 58 60 60 58 59 60 60 60 60 60 60 60 60 61 59 59 59 60 61 60 61 61 61 61 61 62 62 62 60 60 59 59 57 55 56 58 58 55 57 56
19 25 22 23 14 12 12 12 10 10 9 10 11 12 13 16 27 15 17 18 17 18 19 18 23 32 38 38 41 43 47 47 49 46 48 50 50 51 51 53 53 52 55 53 52 54 55 55 55 55 56 57 58 59 59 61 61 62 60 59 59 59 58 59 59 59 59 60 61 61 61 61 62 61 59 60 59 60 56 54 56 58 56 56 56 55
34 29 23 19 19 20 19 19 14 12 10 9 8 8 7 15 15 14 15 21 16 14 14 23 26 31 39 39 39 45 47 48 48 47 46 49 51 51 52 54 54 54 53 53 53 53 54 55 54 53 55 55 56 58 59 58 58 59 59 61 60 59 59 60 59 59 60 60 61 61 61 61 61 61 62 60 60 59 54 55 56 56 57 56 55 55
36 27 26 19 22 27 23 21 19 16 11 9 7 12 14 16 14 15 14 23 21 18 17 23 25 31 38 38 41 43 44 47 49 48 47 47 48 49 47 49 51 50 51 52 54 55 54 53 52 50 49 51 53 55 56 57 57 58 59 58 58 60 59 60 61 61 62 63 63 62 61 60 60 61 61 61 60 60 56 55 56 56 56 56 54 52
25 30 25 29 29 32 27 28 20 18 20 20 17 19 12 12 15 23 19 28 19 17 15 18 18 26 39 39 42 43 45 45 46 47 47 47 48 47 46 47 48 50 50 51 50 51 52 51 51 50 49 50 52 54 55 55 56 57 58 57 57 58 59 59 60 59 59 60 61 61 60 60 60 60 61 60 59 60 57 56 56 57 54 59 56 54
27 31 29 19 19 18 20 21 22 25 25 25 23 23 13 11 23 24 19 17 17 20 17 19 31 35 35 38 42 45 47 48 47 48 46 47 47 46 46 49 48 49 48 49 50 50 50 50 50 51 53 54 56 54 54 55 56 56 55 55 58 55 58 58 58 59 59 59 59 59 60 60 59 59 59 60 61 62 60 58 57 56 57 55 55 58
33 33 29 30 27 27 30 28 28 26 25 23 25 28 30 17 14 23 22 19 17 21 26 37 35 34 36 38 39 45 47 49 49 48 49 46 47 47 47 47 47 48 48 48 48 48 49 49 50 49 51 52 54 53 54 54 54 55 56 57 57 55 57 59 59 59 59 59 59 59 59 58 59 60 59 59 60 61 61 60 59 55 53 54 55 58
28 26 29 30 30 30 30 30 34 28 23 24 25 27 27 31 33 25 21 19 29 24 20 33 36 37 36 38 42 45 46 47 47 47 47 45 46 46 46 46 47 47 47 47 47 46 46 47 49 51 51 51 52 53 54 53 54 55 56 56 56 56 58 58 59 58 58 59 59 58 59 59 59 59 58 59 58 59 59 60 61 59 57 55 54 55
27 23 26 30 27 22 24 27 29 29 27 25 25 28 29 30 37 37 27 25 31 26 24 36 37 36 37 39 44 44 44 44 45 45 45 44 43 43 44 44 44 45 44 45 47 46 44 43 45 48 48 47 48 50 53 53 53 55 56 56 56 57 56 57 57 56 57 58 59 59 59 60 60 60 60 59 60 60 60 60 61 60 59 59 57 59
28 26 28 27 27 23 21 23 25 25 25 24 26 26 25 30 37 38 38 37 35 36 37 37 38 39 41 42 43 43 44 43 43 44 44 42 41 41 41 41 43 43 43 43 43 43 43 42 42 42 43 43 42 43 43 46 47 48 49 51 51 52 53 55 55 55 56 56 58 58 57 59 59 59 59 59 59 59 59 59 61 60 60 59 57 56
35 28 28 28 26 25 24 23 24 24 26 27 27 27 26 26 29 35 41 40 39 38 39 37 38 37 40 42 42 42 42 42 42 41 41 43 41 41 40 39 39 40 40 40 41 41 37 36 36 37 38 41 41 41 41 41 39 43 47 48 49 51 52 51 52 52 52 54 54 56 57 59 58 58 58 59 60 60 59 58 60 60 60 60 60 59
37 30 29 29 24 25 23 25 23 23 25 25 28 29 28 30 29 31 33 39 39 36 37 37 35 34 38 40 42 41 40 39 39 39 38 39 39 39 37 37 36 36 36 36 36 36 36 35 35 34 34 35 35 35 35 39 38 39 39 40 40 43 46 52 52 50 50 52 54 54 54 56 57 56 58 58 57 58 58 58 58 58 59 60 60 59
39 31 28 26 24 23 22 22 21 23 23 22 27 28 29 30 32 30 31 38 41 39 34 32 32 40 37 39 41 40 39 38 37 36 36 35 36 34 33 34 34 34 35 35 35 36 35 35 36 37 35 34 34 34 33 33 35 38 40 43 44 39 43 44 46 47 50 49 48 49 54 51 54 55 57 57 57 57 59 57 57 58 58 59 59 59
39 35 27 28 24 23 24 22 25 24 21 23 36 37 34 28 31 29 31 33 33 42 37 33 33 34 36 37 39 37 33 32 31 32 33 34 34 35 35 35 34 35 36 37 36 36 36 37 37 37 36 34 33 33 33 35 34 36 38 36 35 37 41 40 41 43 43 43 43 44 45 48 48 52 54 56 57 60 59 59 57 59 59 59 59 59
36 36 30 32 26 25 30 31 24 22 22 34 34 33 35 33 30 28 32 31 33 34 37 33 32 33 34 36 37 31 31 31 32 32 33 33 34 34 34 33 33 34 35 36 37 38 37 37 37 36 36 35 35 36 33 33 34 34 35 37 34 32 36 38 40 41 42 43 42 43 44 43 44 45 47 51 55 57 56 58 59 59 58 58 58 58
31 29 30 29 30 28 26 27 24 25 32 33 31 34 35 36 35 33 32 32 32 32 32 31 32 33 33 32 31 31 31 31 31 32 32 33 34 34 34 34 35 37 38 38 38 39 39 37 37 37 37 38 36 35 35 33 35 35 35 36 35 32 34 35 36 36 38 38 38 40 40 41 43 45 44 46 48 51 54 56 57 57 59 58 58 58
34 33 31 29 33 27 26 27 28 34 33 31 32 34 34 34 33 35 29 33 34 33 32 30 31 31 31 31 31 30 30 30 30 31 32 34 36 37 37 38 38 37 36 37 37 38 39 40 40 39 42 42 38 35 38 36 39 37 36 35 32 32 34 36 36 36 37 37 36 37 37 38 40 42 44 45 46 46 50 51 54 56 57 57 57 57
29 32 31 25 28 27 24 24 28 27 26 31 33 31 33 35 35 36 33 34 35 35 35 31 30 30 30 30 30 30 31 29 27 28 31 32 34 35 34 35 35 34 35 38 38 39 39 41 40 42 40 39 40 40 42 39 44 41 37 34 29 28 31 31 36 37 38 36 36 35 34 35 35 38 41 42 43 45 49 50 50 50 54 55 55 55
24 25 31 23 25 24 23 22 22 23 28 33 32 33 32 29 34 35 31 30 37 37 36 31 29 30 30 30 30 31 32 29 28 28 29 30 31 32 32 32 33 34 33 37 40 39 38 38 40 40 39 38 38 39 41 40 35 35 37 33 31 30 29 32 34 39 41 39 37 35 35 35 36 36 39 41 44 47 47 48 49 49 50 51 52 53
27 25 23 21 23 22 23 21 22 26 27 32 32 31 30 29 34 32 24 24 30 34 31 31 29 29 30 30 31 31 32 29 28 29 30 31 32 34 33 32 33 31 27 25 26 31 35 34 35 37 35 32 34 40 34 36 34 35 34 37 32 32 34 34 34 32 32 33 36 36 35 34 35 38 40 39 42 45 47 47 47 48 48 48 47 47
28 26 23 22 22 22 23 21 27 29 32 33 31 29 29 34 34 27 21 27 30 30 31 32 31 33 34 33 32 29 29 30 29 28 28 27 26 26 25 25 23 22 23 24 24 30 22 25 27 27 28 30 31 32 32 32 36 35 33 34 34 35 36 36 35 35 35 34 32 31 31 31 34 38 39 38 40 42 43 44 45 47 47 47 47 47
24 25 21 21 18 19 21 20 26 26 30 31 32 29 30 31 24 26 28 33 32 29 30 31 31 32 31 29 29 28 28 28 28 27 26 26 26 26 24 24 25 25 25 28 30 28 25 26 30 29 30 30 30 31 32 32 34 34 34 34 34 36 36 36 35 35 34 34 34 34 35 36 37 38 40 38 38 38 39 40 42 43 45 44 45 46
24 21 21 23 25 22 21 21 23 22 29 32 32 28 30 27 27 29 29 30 30 29 31 31 31 30 29 28 28 28 27 27 28 28 28 28 28 27 27 27 28 26 27 28 27 26 25 25 27 29 31 31 33 33 33 34 34 33 34 34 36 36 35 35 36 35 35 35 35 36 36 37 37 38 37 38 38 38 37 38 37 40 43 44 44 44
25 19 23 25 25 20 22 23 24 28 29 32 30 27 28 29 30 30 29 28 29 29 29 30 30 30 29 29 28 28 29 28 28 29 28 28 28 28 28 28 28 27 28 27 27 28 25 27 29 30 32 33 33 34 33 34 34 34 34 35 35 36 37 35 35 34 35 36 36 36 35 34 36 36 37 37 38 37 37 37 38 38 38 39 41 42
25 25 26 23 27 27 25 27 28 29 30 30 31 29 30 30 33 33 33 31 29 29 32 31 32 32 30 30 29 29 28 29 28 28 28 27 28 27 27 28 28 29 29 29 29 30 28 28 30 31 32 33 33 33 33 33 34 33 33 35 34 32 32 33 33 35 34 33 33 35 33 35 36 36 36 36 36 35 35 35 36 35 34 36 37 39
24 24 27 25 25 28 28 29 30 28 28 29 30 30 29 30 32 33 32 31 31 31 31 30 30 30 31 33 29 27 27 28 28 26 27 27 27 27 28 28 29 30 30 30 31 31 30 30 31 31 33 32 33 34 36 34 31 33 34 33 34 32 32 33 33 34 34 32 34 34 32 33 33 34 35 37 36 36 35 35 34 34 33 32 32 33
22 21 22 27 27 23 25 28 28 28 29 29 29 30 31 31 31 32 32 31 31 31 31 30 30 31 35 37 33 32 28 27 26 26 26 28 27 27 28 30 30 30 30 30 32 32 31 31 30 30 31 31 31 30 31 31 31 31 32 32 32 33 33 33 34 34 34 34 33 34 33 34 34 34 34 35 34 34 34 33 33 34 33 32 31 30
18 19 17 24 24 22 26 27 29 28 28 28 27 27 29 30 30 30 30 30 30 30 29 29 29 28 28 26 26 27 28 28 27 25 24 25 26 26 27 29 29 30 31 31 32 31 31 31 30 30 29 30 31 31 32 31 31 31 32 33 33 33 34 34 34 34 34 34 34 34 34 34 33 34 34 34 33 34 34 33 34 33 33 32 33 32
20 21 19 20 24 26 26 26 26 27 27 27 27 28 29 28 28 29 29 29 29 29 28 28 29 29 29 28 28 27 27 28 27 26 23 23 26 28 29 29 29 30 30 30 32 32 31 31 28 30 31 32 32 33 32 32 32 31 33 34 34 35 35 35 35 35 34 34 34 34 34 35 34 34 34 34 34 34 34 35 35 33 33 36 44 40
18 23 21 19 25 24 25 26 29 25 26 27 27 28 28 28 28 29 29 28 29 28 29 28 27 28 28 27 27 27 26 27 28 28 25 25 27 28 28 28 29 28 29 30 30 31 30 29 32 32 32 32 32 32 32 33 33 34 33 33 34 34 35 35 35 34 34 34 34 33 33 35 34 33 33 33 33 33 34 33 34 34 34 34 34 34
21 24 22 22 22 22 28 27 26 26 29 28 26 26 26 25 25 26 24 26 25 24 24 25 26 26 27 28 27 27 28 28 28 28 27 26 27 27 27 28 28 28 29 29 29 29 30 31 33 32 31 32 33 33 33 34 34 34 33 34 34 34 35 34 35 34 34 34 34 34 35 35 35 33 33 33 33 34 33 33 33 33 33 33 34 34